When you browse on this site, cookies collect data to enhance your experience and personalize the content and advertising you see.
Visit our Privacy Policy to learn more. By continuing to use the site, you agree to this use of cookies and data.
  • In United Kingdom
  • List of Countries
  • For 7 days
  • Water Temperature
  • Satellite Maps
  • Weather Map
  • Weather Widgets
  • user-avatar
    Login

    Hourly Weather Kurytyba

    Today, 20 January, Sunday

    Time Temperature Precipitation Wind Pressure Humidity
    00:00 +20°C° 0.9 mm 2 mps 682 mmHg 96%
    01:00 +20°C° 0 mm 2 mps 681 mmHg 96%
    02:00 +20°C° 0 mm 2 mps 681 mmHg 96%
    03:00 +20°C° 0 mm 2 mps 681 mmHg 96%
    04:00 +21°C° 0 mm 1 mps 681 mmHg 96%
    05:00 +20°C° 0 mm 1 mps 681 mmHg 96%
    06:00 +20°C° 0 mm 1 mps 681 mmHg 95%
    07:00 +21°C° 0.1 mm 1 mps 681 mmHg 94%
    08:00 +21°C° 0.1 mm 1 mps 682 mmHg 92%
    09:00 +22°C° 0.1 mm 1 mps 682 mmHg 90%
    10:00 +23°C° 0.1 mm 1 mps 683 mmHg 82%
    11:00 +25°C° 0.1 mm 2 mps 683 mmHg 73%
    12:00 +27°C° 0.1 mm 2 mps 683 mmHg 65%
    13:00 +27°C° 0.9 mm 2 mps 683 mmHg 70%
    14:00 +26°C° 0.9 mm 2 mps 682 mmHg 75%
    15:00 +26°C° 0.9 mm 2 mps 682 mmHg 80%
    16:00 +25°C° 1 mm 2 mps 682 mmHg 83%
    17:00 +24°C° 1 mm 2 mps 681 mmHg 87%
    18:00 +23°C° 1 mm 2 mps 681 mmHg 90%
    19:00 +23°C° 0.2 mm 2 mps 681 mmHg 92%
    20:00 +21°C° 0.2 mm 2 mps 682 mmHg 94%
    21:00 +20°C° 0.2 mm 2 mps 682 mmHg 95%
    22:00 +20°C° 0 mm 2 mps 682 mmHg 95%
    23:00 +21°C° 0 mm 1 mps 682 mmHg 96%

    Tomorrow, 21 January, Monday

    Time Temperature Precipitation Wind Pressure Humidity
    00:00 +21°C° 0 mm 1 mps 682 mmHg 96%
    01:00 +21°C° 0 mm 1 mps 682 mmHg 96%
    02:00 +21°C° 0 mm 1 mps 681 mmHg 96%
    03:00 +21°C° 0 mm 1 mps 681 mmHg 97%
    04:00 +21°C° 0 mm 1 mps 681 mmHg 96%
    05:00 +21°C° 0 mm 1 mps 681 mmHg 96%
    06:00 +21°C° 0 mm 1 mps 681 mmHg 96%
    07:00 +22°C° 0 mm 1 mps 682 mmHg 91%
    08:00 +23°C° 0 mm 1 mps 683 mmHg 87%
    09:00 +24°C° 0 mm 1 mps 683 mmHg 82%
    10:00 +27°C° 0.2 mm 2 mps 683 mmHg 73%
    11:00 +29°C° 0.2 mm 2 mps 683 mmHg 65%
    12:00 +31°C° 0.2 mm 2 mps 684 mmHg 56%
    13:00 +31°C° 1.1 mm 2 mps 683 mmHg 57%
    14:00 +31°C° 1.1 mm 1 mps 682 mmHg 59%
    15:00 +31°C° 1.1 mm 1 mps 682 mmHg 60%
    16:00 +30°C° 0.4 mm 1 mps 682 mmHg 64%
    17:00 +29°C° 0.4 mm 1 mps 682 mmHg 67%
    18:00 +28°C° 0.4 mm 1 mps 682 mmHg 71%
    19:00 +27°C° 1.1 mm 1 mps 682 mmHg 76%
    20:00 +23°C° 1.1 mm 0 mps 682 mmHg 81%
    21:00 +22°C° 1.1 mm 0 mps 682 mmHg 86%
    22:00 +21°C° 0.2 mm 0 mps 682 mmHg 87%
    23:00 +21°C° 0.2 mm 0 mps 682 mmHg 88%

    Day after tomorrow, 22 January, Tuesday

    Time Temperature Precipitation Wind Pressure Humidity
    00:00 +21°C° 0.2 mm 0 mps 682 mmHg 89%
    01:00 +21°C° 0 mm 0 mps 682 mmHg 90%
    02:00 +22°C° 0 mm 1 mps 682 mmHg 91%
    03:00 +22°C° 0 mm 1 mps 681 mmHg 92%
    04:00 +22°C° 0 mm 1 mps 681 mmHg 92%
    05:00 +20°C° 0 mm 0 mps 681 mmHg 93%
    06:00 +19°C° 0 mm 0 mps 681 mmHg 93%
    07:00 +22°C° 0 mm 0 mps 682 mmHg 82%
    08:00 +25°C° 0 mm 0 mps 683 mmHg 72%
    09:00 +27°C° 0 mm 0 mps 684 mmHg 61%
    10:00 +29°C° 0.3 mm 0 mps 684 mmHg 58%
    11:00 +30°C° 0.3 mm 0 mps 684 mmHg 55%
    12:00 +32°C° 0.3 mm 0 mps 684 mmHg 51%
    13:00 +32°C° 1.2 mm 1 mps 684 mmHg 57%
    14:00 +31°C° 1.2 mm 1 mps 683 mmHg 63%
    15:00 +30°C° 1.2 mm 1 mps 682 mmHg 69%
    16:00 +28°C° 1.8 mm 2 mps 682 mmHg 75%
    17:00 +27°C° 1.8 mm 2 mps 682 mmHg 81%
    18:00 +26°C° 1.8 mm 2 mps 681 mmHg 87%
    19:00 +25°C° 1 mm 2 mps 682 mmHg 89%
    20:00 +24°C° 1 mm 1 mps 682 mmHg 91%
    21:00 +23°C° 1 mm 1 mps 683 mmHg 92%
    22:00 +23°C° 0 mm 1 mps 683 mmHg 93%
    23:00 +23°C° 0 mm 1 mps 683 mmHg 94%

    23 January, Wednesday

    Time Temperature Precipitation Wind Pressure Humidity
    00:00 +22°C° 0 mm 1 mps 683 mmHg 94%
    01:00 +20°C° 0 mm 0 mps 682 mmHg 94%
    02:00 +20°C° 0 mm 0 mps 682 mmHg 94%
    03:00 +20°C° 0 mm 0 mps 681 mmHg 94%
    04:00 +20°C° 0 mm 0 mps 681 mmHg 94%
    05:00 +19°C° 0 mm 0 mps 682 mmHg 94%
    06:00 +19°C° 0 mm 0 mps 682 mmHg 94%
    07:00 +22°C° 0 mm 0 mps 683 mmHg 83%
    08:00 +25°C° 0 mm 0 mps 684 mmHg 73%
    09:00 +27°C° 0 mm 0 mps 685 mmHg 62%
    10:00 +29°C° 0.1 mm 0 mps 685 mmHg 56%
    11:00 +31°C° 0.1 mm 0 mps 685 mmHg 50%
    12:00 +33°C° 0.1 mm 0 mps 685 mmHg 44%
    13:00 +31°C° 1.8 mm 0 mps 684 mmHg 52%
    14:00 +32°C° 1.8 mm 1 mps 683 mmHg 60%
    15:00 +31°C° 1.8 mm 1 mps 682 mmHg 68%
    16:00 +29°C° 2.8 mm 1 mps 682 mmHg 73%
    17:00 +28°C° 2.8 mm 1 mps 681 mmHg 78%
    18:00 +26°C° 2.8 mm 2 mps 681 mmHg 83%
    19:00 +26°C° 0.7 mm 1 mps 681 mmHg 84%
    20:00 +25°C° 0.7 mm 1 mps 682 mmHg 86%
    21:00 +24°C° 0.7 mm 1 mps 682 mmHg 87%
    22:00 +24°C° 0 mm 1 mps 682 mmHg 87%
    23:00 +21°C° 0 mm 0 mps 682 mmHg 88%

    24 January, Thursday

    Time Temperature Precipitation Wind Pressure Humidity
    00:00 +21°C° 0 mm 0 mps 682 mmHg 89%
    01:00 +21°C° 0 mm 0 mps 681 mmHg 89%
    02:00 +21°C° 0 mm 0 mps 681 mmHg 90%
    03:00 +20°C° 0 mm 0 mps 680 mmHg 90%
    04:00 +20°C° 0 mm 0 mps 680 mmHg 91%
    05:00 +20°C° 0 mm 0 mps 681 mmHg 91%
    06:00 +20°C° 0 mm 0 mps 681 mmHg 91%
    07:00 +22°C° 0 mm 0 mps 682 mmHg 81%
    08:00 +25°C° 0 mm 0 mps 683 mmHg 70%
    09:00 +27°C° 0 mm 0 mps 683 mmHg 59%
    10:00 +31°C° 0.1 mm 1 mps 683 mmHg 56%
    11:00 +32°C° 0.1 mm 1 mps 683 mmHg 53%
    12:00 +33°C° 0.1 mm 1 mps 683 mmHg 50%
    13:00 +32°C° 1.4 mm 2 mps 682 mmHg 55%
    14:00 +31°C° 1.4 mm 2 mps 681 mmHg 61%
    15:00 +29°C° 1.4 mm 2 mps 681 mmHg 67%
    16:00 +28°C° 1.6 mm 3 mps 681 mmHg 74%
    17:00 +27°C° 1.6 mm 3 mps 681 mmHg 80%
    18:00 +25°C° 1.6 mm 3 mps 681 mmHg 86%
    19:00 +24°C° 0.8 mm 3 mps 681 mmHg 89%
    20:00 +23°C° 0.8 mm 2 mps 682 mmHg 91%
    21:00 +21°C° 0.8 mm 2 mps 682 mmHg 94%
    22:00 +21°C° 0 mm 2 mps 682 mmHg 94%
    23:00 +21°C° 0 mm 1 mps 682 mmHg 95%

    25 January, Friday

    Time Temperature Precipitation Wind Pressure Humidity
    00:00 +21°C° 0 mm 1 mps 682 mmHg 95%
    01:00 +21°C° 0 mm 1 mps 681 mmHg 95%
    02:00 +18°C° 0 mm 0 mps 681 mmHg 95%
    03:00 +18°C° 0 mm 0 mps 680 mmHg 95%
    04:00 +18°C° 0 mm 0 mps 680 mmHg 95%
    05:00 +18°C° 0 mm 0 mps 680 mmHg 95%
    06:00 +17°C° 0 mm 0 mps 681 mmHg 94%
    07:00 +22°C° 0 mm 1 mps 681 mmHg 84%
    08:00 +24°C° 0 mm 1 mps 682 mmHg 74%
    09:00 +26°C° 0 mm 1 mps 683 mmHg 64%
    10:00 +28°C° 0 mm 1 mps 683 mmHg 59%
    11:00 +30°C° 0 mm 1 mps 683 mmHg 53%
    12:00 +32°C° 0 mm 1 mps 683 mmHg 47%
    13:00 +32°C° 0.2 mm 1 mps 683 mmHg 50%
    14:00 +31°C° 0.2 mm 1 mps 682 mmHg 52%
    15:00 +31°C° 0.2 mm 1 mps 682 mmHg 55%
    16:00 +30°C° 0.4 mm 1 mps 681 mmHg 60%
    17:00 +29°C° 0.4 mm 1 mps 681 mmHg 64%
    18:00 +28°C° 0.4 mm 1 mps 681 mmHg 69%
    19:00 +26°C° 0.4 mm 1 mps 682 mmHg 75%
    20:00 +25°C° 0.4 mm 1 mps 682 mmHg 81%
    21:00 +23°C° 0.4 mm 1 mps 682 mmHg 87%
    22:00 +23°C° 0 mm 1 mps 682 mmHg 89%
    23:00 +22°C° 0 mm 1 mps 682 mmHg 91%
    Show more